VK5ALG-13 Weather Reports


time (UTC)temp
F
wind
direction
speed
knots
gust
knots
rain 1hr
in
rain 24hr
in
rain mn
in
humidity
%
barometer
mb
20260505014017 64 296 0.9 1.7 0.00 0.13 0.03 64 1024.5
20260505013034 62 206 0.9 5.2 0.00 0.13 0.03 65 1024.4
20260505012031 61 146 0.0 1.7 0.00 0.13 0.03 71 1024.3
20260505011027 60 283 0.0 0.9 0.00 0.13 0.03 74 1024.3
20260505010024 60 282 0.0 1.7 0.00 0.13 0.03 74 1024.1
20260505005041 60 217 0.0 0.9 0.00 0.13 0.03 75 1024.0
20260505004033 60 255 0.0 0.9 0.00 0.13 0.03 79 1024.0
20260505003034 60 207 0.9 0.9 0.00 0.13 0.03 84 1023.8
20260505002030 60 321 0.0 0.9 0.00 0.13 0.03 89 1023.9
20260505001026 58 213 0.0 1.7 0.00 0.13 0.03 92 1023.8
20260505000023 58 214 0.9 1.7 0.00 0.13 0.03 95 1023.7
20260504235019 58 203 0.0 0.9 0.00 0.13 0.03 96 1023.7
20260504234036 58 236 0.0 0.9 0.00 0.13 0.03 96 1023.7
20260504233032 57 0.0 0.0 0.00 0.13 0.03 97 1023.6
20260504232028 56 231 0.0 0.9 0.00 0.13 0.03 97 1023.6
20260504231025 56 200 0.0 0.9 0.00 0.13 0.03 97 1023.5
20260504230041 56 211 0.0 0.9 0.00 0.13 0.03 97 1023.4
20260504225017 56 189 0.0 0.9 0.00 0.13 0.03 97 1023.3
20260504224034 56 0.0 0.0 0.00 0.13 0.03 97 1023.3
20260504223031 56 0.0 0.0 0.00 0.13 0.03 97 1023.1
20260504222048 55 0.0 0.0 0.00 0.13 0.03 97 1023.0
20260504221023 55 0.0 0.0 0.00 0.14 0.03 97 1023.0
20260504220020 55 0.0 0.0 0.00 0.14 0.03 97 1022.9
20260504215036 54 0.0 0.0 0.00 0.14 0.03 97 1022.8
20260504214053 54 72 0.0 0.9 0.00 0.14 0.03 97 1022.8
20260504213029 54 0.0 0.0 0.00 0.14 0.03 97 1022.7
20260504212047 54 0.0 0.0 0.00 0.14 0.03 97 1022.5
20260504211022 53 0.0 0.0 0.00 0.14 0.03 97 1022.3
20260504210018 53 0.0 0.0 0.00 0.14 0.03 97 1022.3
20260504205035 53 0.0 0.0 0.00 0.15 0.03 97 1022.2
20260504204031 53 0.0 0.0 0.00 0.15 0.03 97 1022.0
20260504203028 53 0.0 0.0 0.00 0.15 0.03 97 1021.9
20260504202024 53 0.0 0.0 0.00 0.15 0.03 97 1021.9
20260504201023 53 0.0 0.0 0.00 0.15 0.03 97 1021.8
20260504200017 53 0.0 0.0 0.00 0.15 0.03 97 1021.8
20260504195034 53 0.0 0.0 0.00 0.15 0.03 97 1021.6
20260504194031 53 0.0 0.0 0.00 0.15 0.03 97 1021.6
20260504193026 53 0.0 0.0 0.00 0.15 0.03 97 1021.4
20260504192023 52 0.0 0.0 0.00 0.15 0.03 97 1021.4
20260504191019 51 0.0 0.0 0.00 0.15 0.03 97 1021.3
20260504190036 51 0.0 0.0 0.00 0.17 0.03 96 1021.3
20260504185032 52 0.0 0.0 0.00 0.17 0.03 96 1021.2
20260504184028 53 0.0 0.0 0.00 0.17 0.03 96 1021.3
20260504183024 53 0.0 0.0 0.00 0.17 0.03 96 1021.1
20260504182041 53 74 0.0 0.9 0.01 0.17 0.03 96 1021.1
20260504181037 53 0.0 0.0 0.01 0.17 0.03 96 1021.0
20260504180034 53 87 0.0 0.9 0.01 0.17 0.03 96 1021.0
20260504175031 53 0.0 0.0 0.01 0.17 0.03 96 1021.0
20260504174027 54 0.0 0.0 0.01 0.17 0.03 96 1021.0
20260504173044 54 84 0.0 0.9 0.01 0.17 0.03 96 1021.1
20260504172020 54 92 0.0 0.9 0.02 0.16 0.02 96 1021.2
20260504171016 53 85 0.9 1.7 0.02 0.16 0.02 96 1021.2
20260504151034 54 169 0.0 0.9 0.00 0.26 0.00 95 1021.2
20260504141032 52 0.0 0.0 0.00 0.31 0.31 95 1020.7
20260504081022 61 203 2.6 7.0 0.00 0.52 0.21 68 1017.2
20260504070116 64 188 2.6 7.0 0.00 0.52 0.21 64 1016.6
20260504045030 69 198 4.3 8.7 0.00 0.58 0.21 54 1015.4
20260504044026 69 229 4.3 11.3 0.00 0.58 0.21 54 1015.2
20260504043022 69 203 3.5 9.6 0.00 0.58 0.21 56 1015.2
20260504042019 68 232 1.7 7.0 0.00 0.58 0.21 58 1015.1
20260504041036 68 204 5.2 9.6 0.00 0.58 0.21 57 1015.1
20260504040032 65 212 3.5 7.8 0.00 0.58 0.21 63 1015.2
20260504035028 66 205 4.3 9.6 0.00 0.58 0.21 60 1015.2
20260504034025 67 226 3.5 9.6 0.00 0.58 0.21 59 1015.1
20260504033021 66 228 2.6 9.6 0.00 0.58 0.21 61 1015.1
20260504032017 68 209 4.3 8.7 0.00 0.58 0.21 58 1015.1
20260504031034 65 208 6.1 13.0 0.00 0.58 0.21 63 1015.2
20260504030031 64 184 3.5 11.3 0.00 0.58 0.21 66 1015.3
20260504025055 64 208 5.2 13.0 0.00 0.58 0.21 67 1015.4
20260504024044 65 202 4.3 12.2 0.00 0.58 0.21 63 1015.5
20260504023020 66 192 5.2 13.0 0.00 0.58 0.21 62 1015.4
20260504022017 68 191 4.3 11.3 0.00 0.58 0.21 59 1015.4
20260504021033 66 229 2.6 6.1 0.00 0.58 0.21 67 1015.5
20260504020030 64 230 5.2 12.2 0.00 0.58 0.21 69 1015.5
20260504015026 65 206 2.6 7.8 0.00 0.58 0.21 66 1015.5